Starlink 31377

operational
NORAD ID: 58938 Int'l Des: 2024-027 Owner: SPXS Country: US Constellation: starlink
LEOCIRCULAR

About Starlink 31377

Description loading...

Live Position

Loading 3D Globe...

Upcoming Passes

Altitude History

Altitude vs Time

uPlot chart will show altitude changes over time

Two-Line Element Set

1 58938U 24027H 25308.67218633 .00007459 00000-0 26407-3 0 9999
2 58938 53.1591 170.5943 0001103 103.6870 256.4253 15.30156025 98189
Epoch: Nov 4, 2025 • Age: 9 hours

Current Status

Altitude 475.7 km
Velocity 7.63 km/s
Sub-Earth Point 6.65°N, 105.6°E
Launch Date Feb 10, 2024
Age 1.7 years
Type internet

Technical Details

Classification Payload
Mass 730.00 kg
Dry Mass 700.00 kg
Total Mass 730.00 kg
Length 0.30 m
Diameter 4.10 m
Span 29.00 m
Shape Box + pan
Manufacturer SPXS
Bus Type Starlink V2M
Phase Status In Orbit
Owner/State SPXS/US

Large Constellations

Loading constellations...